Weather in Birmingham

United Kingdom     52˚29′41″N   1˚51′05″W
temp.,
°C
wind,
m/s
gust,
m/s
humid.,
%
clouds,
%
prec.,
mm/h
press.,
hPa
HPBL,
m
27 november, fri
fri2700:00+5˚w11900 0.0 102222
03:00+4˚nnw11890 0.0 102122
06:00+4˚nne118914 0.0 102122
09:00+4˚ene118044 0.0 102075
12:00+6˚e137122 0.0 1019314
15:00+6˚e238067 0.0 1018391
18:00+4˚e258784 0.0 1018266
21:00+3˚e26907 0.0 1018217
28 november, sat
sat2800:00+5˚e368846 0.0 1017271
03:00+5˚ene368984 0.0 1016257
06:00+6˚e499592 0.6 1017376
09:00+6˚e3796100 2.9 1018344
12:00+7˚e3696100 4.2 1018295
15:00+8˚e259499 0.6 1019247
18:00+7˚ene249799 0.6 1021137
21:00+7˚ene249799 0.0 1022121
29 november, sun
sun2900:00+7˚ese248999 0.0 1024151
03:00+7˚ese1187100 0.0 102462
06:00+7˚ese128797 0.0 102438
09:00+6˚sse118749 0.0 102622
12:00+9˚sse117135 0.0 1026167
15:00+9˚sw117457 0.0 102622
18:00+7˚wsw118052 0.0 102622
21:00+7˚w128572 0.0 102727
30 november, mon
mon3000:00+7˚w128977 0.0 102728
03:00+6˚wsw238884 0.0 102677
06:00+6˚w268871 0.0 1026158
09:00+6˚w249572 0.0 1027125
12:00+9˚w368376 0.0 1026462
15:00+9˚wnw3976100 0.0 1025555
18:00+9˚wnw41080100 0.0 1025664
21:00+9˚wnw51186100 0.1 1025648
1 december, tue
tue100:00+9˚wnw51288100 0.4 1025697
03:00+9˚nw51189100 0.1 1025696
06:00+9˚nw41091100 0.3 1025626
09:00+8˚e1284100 0.6 1026187
12:00+8˚ssw1287100 1.4 1026181
15:00+9˚nw3889100 0.0 1026539
18:00+9˚nw3990100 0.0 1025484
21:00+9˚nw3891100 0.1 1025430